Other Public Products
Issued by NWS Grand Forks, ND

Home | Current Version | Previous Version | Graphics & Text | Print | Product List | Glossary On
Versions: 1 2 3 4 5 6 7 8 9 10 11 12 13 14 15 16 17 18 19 20 21 22 23 24 25 26 27 28 29 30 31 32 33 34 35 36 37 38 39 40 41 42 43 44 45 46 47 48 49 50
000
FPUS83 KFGF 250831
OPUFGF
PRAIRIE TO PINES WEATHER ROUNDUP
NATIONAL WEATHER SERVICE EASTERN NORTH DAKOTA/GRAND FORKS ND
300 AM CDT SAT APR 25 2015

 **SATELLITE DATA USED TO AUGMENT SKY COVER AT AUTOMATED STATIONS**
 *****  WEATHER ACROSS EASTERN NORTH DAKOTA  *****

CITY           SKY/WX    TMP DP  RH WIND       PRES   REMARKS
GRAND FORKS    CLOUDY    45  32  61 E10       29.82S
GRAND FORKS AF CLOUDY    44  34  67 E8        29.81F
GRAND CITY NWS   N/A     43 N/A N/A E10         N/A
BUXTON           N/A     43  36  75 CALM        N/A
DEVILS LAKE    CLOUDY    43  36  75 SE12      29.78S
FARGO          CLOUDY    44  36  73 E9        29.78F
WAHPETON ARPT  CLOUDY    43  39  87 E9        29.77R
$$

 *****  WEATHER ACROSS CENTRAL AND WESTERN NORTH DAKOTA  *****

CITY           SKY/WX    TMP DP  RH WIND       PRES   REMARKS
JAMESTOWN      CLOUDY    42  41  96 E10       29.75S FOG
BISMARCK       CLOUDY    43  41  93 E7        29.72F
MINOT          CLEAR     37  34  89 E6        29.75R FOG
MINOT AFB      CLEAR     37  37 100 SE8       29.75R
GARRISON         N/A     41  39  93 E8        29.73R
WILLISTON      MOCLDY    49  37  63 E8        29.66R
DICKINSON      CLEAR     42  38  85 E8        29.66R
HETTINGER      CLEAR     40  37  89 E6        29.68R
$$

 *****  OTHER OBSERVATIONS NORTHEAST NORTH DAKOTA  *****

CITY           SKY/WX    TMP DP  RH WIND       PRES   REMARKS
WALHALLA       CLOUDY    32  32 100 NE5       29.85S
LANGDON        FAIR      36  30  80 E9        29.81S
CAVALIER       CLOUDY    41  32  70 E6        29.84S
GRAFTON        CLOUDY    43  34  70 E9        29.85R
CANDO          PTSUNNY   37  34  87 E8        29.81R
FORT TOTTEN      N/A     43  38  84 SE6       29.95S
ROLLA          FAIR      32  32 100 E6        29.82R
RUGBY          NOT AVBL
 ***** THE ABOVE OBSERVATIONS ARE NON NWS ARE NOT QUALITY
        CONTROLLED AND MAY MIS-REPORT RAIN FOR SNOW...
$$

 *****  OTHER OBSERVATIONS SOUTHEAST NORTH DAKOTA *****

CITY           SKY/WX    TMP DP  RH WIND       PRES   REMARKS
COOPERSTOWN    NOT AVBL
VALLEY CITY    CLOUDY    41  41 100 E10       29.77S FOG
OAKES          FOG       43  43 100 NE14      29.73S VSB 1
GWINNER        CLOUDY    45  45 100 E14       29.75S
BUFFALO        NOT AVBL
WYNDMERE       NOT AVBL
 ***** THE ABOVE OBSERVATIONS ARE NON NWS ARE NOT QUALITY
       CONTROLLED AND MAY MIS-REPORT RAIN FOR SNOW...
$$

  *****  WEATHER ACROSS NORTHERN MINNESOTA  *****

CITY           SKY/WX    TMP DP  RH WIND       PRES   REMARKS
FLAG ISLAND    CLOUDY    39  27  60 E5        29.91R
WARROAD        CLOUDY    39  28  65 E7        29.90R
ROSEAU         CLOUDY    41  30  65 E6        29.88S
HALLOCK        CLOUDY    43  34  70 E8        29.85S
THF RVR FALLS  CLOUDY    43  30  61 E12       29.84S
HALSTAD          N/A     43  34  70 E6          N/A
FOSSTON        CLOUDY    39  30  70 E5        29.84S
BAUDETTE       CLOUDY    39  23  52 SE13      29.89F
WASKISH        CLOUDY    39  27  60 CALM      29.89S
CROOKSTON      CLOUDY    45  32  61 E8        29.83S
$$
  *****  WEATHER ACROSS CENTRAL AND WEST MINNESOTA  *****

CITY           SKY/WX    TMP DP  RH WIND       PRES   REMARKS
BEMIDJI        CLOUDY    38  28  67 E9        29.86R
PARK RAPIDS    CLOUDY    41  31  67 E9        29.81F
WADENA         CLOUDY    39  32  75 E10       29.80S
DETROIT LAKES  CLOUDY    41  34  75 SE12      29.80S
MOORHEAD       CLOUDY    43  36  75 E8        29.80S
FERGUS FALLS   CLOUDY    43  37  81 SE10      29.79R
ELBOW LAKE     CLOUDY    42  41  98 SE12G17   29.75F FOG
MORRIS MN      CLOUDY    43  43 100 E15       29.74S FOG
STAPLES        CLOUDY    39  32  75 E8        29.82S
WHEATON        CLOUDY    39  39 100 E15       29.76F FOG
$$
  *****  WEATHER ELSEWHERE ACROSS MINNESOTA  *****

CITY           SKY/WX    TMP DP  RH WIND       PRES   REMARKS
DULUTH         CLOUDY    36  24  62 E14       29.90S
INTRNTL FALLS  CLOUDY    37  20  50 SE8       29.93R
ELY            CLOUDY    36  18  48 E5        29.95S
CLOQUET        CLOUDY    36  27  69 E10G16    29.89F
BRAINERD       CLOUDY    38  31  76 E7        29.85R
HIBBING        CLOUDY    37  18  46 E10       29.91S
ALEXANDRIA     LGT RAIN  41  40  96 E12       29.78S FOG
SAINT CLOUD    CLOUDY    44  38  79 E7        29.80S
MINNEAPOLIS    CLOUDY    44  39  82 E17       29.81S
$$

  *****  WEATHER ACROSS SOUTH DAKOTA  *****

CITY           SKY/WX    TMP DP  RH WIND       PRES   REMARKS
SIOUX FALLS    CLOUDY    47  45  93 E15       29.62F
BROOKINGS      CLOUDY    46  45  93 NE9       29.65F
WATERTOWN      CLOUDY    43  41  93 E13       29.66F FOG
HURON          CLOUDY    53  48  83 E8        29.60R
SISSETON         N/A     43  42  97 SE15      29.72S
ABERDEEN       CLOUDY    46  43  89 NE9       29.69R
MITCHELL       CLOUDY    50  47  89 E21       29.57F
PIERRE         HVY RAIN  47  45  93 E14       29.60S FOG
MOBRIDGE       CLOUDY    47  43  86 E13       29.65R FOG
RAPID CITY     PTCLDY    44  39  82 N8        29.64R
$$

  *****  SOME WEATHER IN NEARBY STATES *****

CITY           SKY/WX    TMP DP  RH WIND       PRES   REMARKS
GLASGOW MT     CLOUDY    52  34  50 NE7       29.60R
GREAT FALLS MT CLOUDY    40  38  93 SE8       29.74S
CHEYENNE WY    CLEAR     42  31  64 NW5       29.72R
SCOTTSBLUFF NE PTCLDY    44  40  85 NW8       29.65R
OMAHA NE       TSTM      56  53  90 E16       29.47F
DES MOINES IA  LGT RAIN  50  44  80 E13       29.56F
DAVENPORT IA   CLOUDY    41  38  89 E18       29.73S
CHICAGO IL     CLOUDY    43  38  82 E15       29.83F
EAU CLAIRE WI  CLOUDY    42  35  76 E10       29.86S
LA CROSSE WI   CLOUDY    43  35  73 E7        29.84S
$$

  *****  SOME NATIONAL WEATHER *****

CITY           SKY/WX    TMP DP  RH WIND       PRES   REMARKS
LA GUARDIA NY  CLEAR     40  22  48 W13       29.90S
RALEIGH NC     MOCLDY    48  41  76 CALM      29.93S
ATLANTA GA     CLOUDY    66  50  56 SE5       29.87F
NEW ORLEANS LA CLOUDY    78  74  87 W9        29.83R
OKLAHOMA CITY  CLEAR     62  54  74 SW13      29.54F
ALBUQUERQUE NM PTCLDY    51  33  50 W9        29.96F
SALT LAKE CITY MOCLDY    46  42  86 CALM      29.82R
LOS ANGELES CA PTCLDY    58  50  75 W9        30.00S
BOISE ID       MOCLDY    48  29  47 W6        29.78S
SEATTLE WA     MOCLDY    45  40  82 S7        29.89R
$$

*** WEATHER ACROSS MANITOBA...SASKATCHEWAN AND ONTARIO ***
                ***ONTARIO***

CITY           SKY/WX    TMP DP  RH WIND       PRES   REMARKS
GERALDTON      CLEAR     19  16  86 CALM      30.06F
THUNDER BAY    CLOUDY    30  25  80 NE3       30.05S
SIOUX LOOKOUT  CLOUDY    34  18  51 SE6       29.99S
TORONTO        CLEAR     28  21  74 N3        29.99F
BIG TROUT LK   CLEAR     12  10  92 E2        30.14R
PICKLE LAKE    NOT AVBL
DRYDEN         CLOUDY    37  23  56 E5        29.95F
KENORA         CLOUDY    39  25  56 SE9       29.93
$$
                *** MANITOBA***

CITY           SKY/WX    TMP DP  RH WIND       PRES   REMARKS
BRANDON        CLEAR     32  30  93 E8        29.84S WCI  25
DAUPHIN        MOCLDY    41  34  75 S6        29.84R
ISLAND LAKE    PTCLDY    27  14  59 E6        30.04S WCI  20
PILOT MOUND      N/A     34  30  86 E7          N/A
THE PAS        FLURRIES  25  23  93 NE7       29.95S WCI  17
THOMPSON       NOT AVBL
WINNIPEG       CLEAR     32  27  80 E6        29.90S
LYNN LAKE      CLEAR     18  10  73 N6        30.05S WCI   9
CHURCHILL      PTCLDY    10   7  85 S8        30.20S WCI  -1
GILLAM         SNOW      21  18  86 E5        30.14S VSB 1/2 WCI  15
$$
                ***SASKATCHEWAN***

CITY           SKY/WX    TMP DP  RH WIND       PRES   REMARKS
ESTEVAN        CLOUDY    45  39  81 SE14G21   29.71R
KINDERSLEY     PTCLDY    34  30  86 NE22      29.72F WCI  22
LLOYDMINSTER   CLOUDY    32  27  80 E13       29.85R WCI  22
PRINCE ALBERT  CLOUDY    28  23  80 E16G23    29.93S WCI  17
REGINA         MOCLDY    48  36  61 E12G18    29.70S
YORKTON        PTCLDY    41  36  81 E8        29.78S



USA.gov is the U.S. government's official web portal to all federal, state and local government web resources and services.